QPF
0.00 0.00 0.01 0.02 0.05 0.06 0.05 0.03 0.02 0.02 0.02 0.02 0.02 0.02 0.02 0.03 0.02 0.02 0.02 0.02 0.02 0.03 0.03 0.03 0.02 0.02 0.02 0.02 0.02 0.01 0.01 0.01 0.01 0.01 0.01 0.01 0.01 0.01 0.01 0.02 0.02 0.02 0.02
0.00 0.00 0.01 0.03 0.05 0.05 0.04 0.02 0.02 0.02 0.02 0.02 0.02 0.02 0.02 0.03 0.04 0.04 0.03 0.03 0.03 0.04 0.04 0.03 0.03 0.03 0.03 0.03 0.02 0.01 0.01 0.01 0.01 0.01 0.01 0.01 0.01 0.01 0.01 0.02 0.02 0.02 0.02
0.00 0.00 0.01 0.02 0.03 0.04 0.03 0.02 0.02 0.02 0.01 0.01 0.02 0.02 0.02 0.02 0.04 0.04 0.04 0.03 0.03 0.04 0.05 0.04 0.04 0.04 0.04 0.03 0.02 0.01 0.01 0.01 0.00 0.00 0.00 0.01 0.02 0.02 0.03 0.03 0.02 0.03 0.03
0.00 0.00 0.01 0.01 0.02 0.02 0.02 0.02 0.02 0.01 0.01 0.01 0.01 0.02 0.02 0.02 0.03 0.04 0.04 0.04 0.04 0.05 0.04 0.04 0.03 0.05 0.04 0.02 0.01 0.01 0.01 0.01 0.01 0.01 0.01 0.01 0.02 0.03 0.04 0.03 0.03 0.02 0.02
0.01 0.01 0.01 0.02 0.03 0.04 0.03 0.03 0.02 0.01 0.01 0.01 0.02 0.03 0.02 0.02 0.04 0.05 0.05 0.04 0.04 0.05 0.05 0.04 0.03 0.04 0.02 0.02 0.01 0.01 0.01 0.00 0.00 0.00 0.01 0.01 0.02 0.05 0.05 0.04 0.03 0.03 0.02
0.02 0.02 0.03 0.02 0.03 0.04 0.05 0.05 0.05 0.04 0.03 0.01 0.02 0.03 0.04 0.04 0.05 0.07 0.06 0.04 0.05 0.05 0.05 0.05 0.03 0.03 0.02 0.01 0.01 0.01 0.01 0.00 0.00 0.00 0.00 0.00 0.02 0.07 0.11 0.07 0.03 0.02 0.03
0.01 0.02 0.04 0.02 0.03 0.04 0.03 0.03 0.04 0.04 0.03 0.02 0.03 0.03 0.04 0.05 0.07 0.08 0.08 0.06 0.06 0.05 0.05 0.05 0.04 0.02 0.02 0.02 0.01 0.01 0.01 0.00 0.00 0.00 0.00 0.01 0.05 0.15 0.14 0.05 0.03 0.02 0.02
0.00 0.01 0.02 0.02 0.02 0.03 0.03 0.04 0.04 0.04 0.03 0.04 0.04 0.03 0.03 0.04 0.06 0.08 0.10 0.08 0.07 0.07 0.06 0.04 0.03 0.02 0.01 0.01 0.01 0.01 0.00 0.00 0.00 0.00 0.00 0.00 0.02 0.03 0.04 0.03 0.03 0.02 0.02
0.01 0.01 0.02 0.04 0.03 0.02 0.03 0.03 0.03 0.04 0.04 0.04 0.05 0.04 0.03 0.03 0.04 0.06 0.10 0.11 0.09 0.09 0.06 0.03 0.03 0.02 0.02 0.01 0.01 0.01 0.01 0.00 0.00 0.00 0.00 0.01 0.01 0.02 0.02 0.03 0.03 0.02 0.02
0.01 0.02 0.02 0.03 0.04 0.03 0.03 0.03 0.03 0.03 0.03 0.04 0.06 0.05 0.04 0.03 0.03 0.05 0.07 0.12 0.10 0.08 0.07 0.05 0.04 0.03 0.03 0.03 0.02 0.02 0.02 0.01 0.01 0.01 0.00 0.01 0.01 0.02 0.02 0.03 0.03 0.03 0.03
0.02 0.02 0.02 0.02 0.03 0.04 0.04 0.04 0.05 0.04 0.04 0.05 0.05 0.05 0.04 0.04 0.04 0.05 0.06 0.10 0.09 0.06 0.06 0.05 0.04 0.03 0.02 0.02 0.01 0.01 0.02 0.02 0.01 0.01 0.01 0.01 0.01 0.02 0.03 0.03 0.03 0.03 0.04
0.02 0.02 0.01 0.01 0.02 0.03 0.04 0.04 0.05 0.05 0.05 0.05 0.05 0.04 0.03 0.03 0.04 0.06 0.07 0.11 0.08 0.06 0.05 0.04 0.04 0.03 0.02 0.01 0.01 0.02 0.02 0.01 0.01 0.01 0.01 0.01 0.01 0.01 0.02 0.03 0.03 0.03 0.03
0.03 0.02 0.01 0.01 0.01 0.02 0.03 0.04 0.04 0.05 0.04 0.04 0.04 0.03 0.03 0.03 0.04 0.05 0.07 0.08 0.07 0.06 0.04 0.04 0.05 0.05 0.03 0.02 0.01 0.01 0.01 0.01 0.01 0.01 0.01 0.01 0.02 0.03 0.04 0.03 0.02 0.03 0.03
0.05 0.03 0.02 0.01 0.01 0.02 0.03 0.04 0.04 0.04 0.04 0.03 0.03 0.03 0.02 0.03 0.04 0.05 0.06 0.07 0.06 0.03 0.03 0.03 0.04 0.05 0.05 0.04 0.03 0.02 0.02 0.02 0.02 0.02 0.01 0.01 0.02 0.03 0.03 0.04 0.03 0.03 0.02
0.05 0.05 0.03 0.02 0.02 0.03 0.04 0.04 0.04 0.04 0.04 0.04 0.03 0.02 0.02 0.02 0.03 0.04 0.04 0.04 0.04 0.03 0.02 0.02 0.03 0.03 0.04 0.04 0.04 0.03 0.02 0.03 0.04 0.03 0.01 0.01 0.01 0.02 0.03 0.04 0.04 0.04 0.04
0.04 0.05 0.04 0.03 0.04 0.05 0.06 0.07 0.05 0.04 0.04 0.04 0.03 0.02 0.02 0.02 0.03 0.02 0.03 0.03 0.03 0.03 0.02 0.02 0.03 0.03 0.03 0.03 0.04 0.03 0.03 0.04 0.05 0.05 0.03 0.02 0.01 0.02 0.02 0.03 0.04 0.04 0.05
0.04 0.04 0.04 0.05 0.05 0.07 0.07 0.08 0.09 0.07 0.04 0.04 0.03 0.02 0.02 0.02 0.02 0.01 0.01 0.02 0.03 0.03 0.02 0.02 0.03 0.03 0.03 0.03 0.03 0.03 0.03 0.04 0.05 0.06 0.04 0.02 0.02 0.02 0.02 0.02 0.02 0.02 0.03
0.04 0.03 0.03 0.04 0.05 0.07 0.08 0.08 0.09 0.08 0.07 0.05 0.03 0.03 0.03 0.01 0.01 0.01 0.01 0.01 0.02 0.03 0.03 0.03 0.03 0.03 0.03 0.03 0.03 0.03 0.03 0.04 0.05 0.04 0.03 0.02 0.02 0.01 0.01 0.01 0.01 0.01 0.01
0.04 0.03 0.02 0.03 0.04 0.06 0.08 0.09 0.08 0.07 0.06 0.05 0.04 0.03 0.02 0.02 0.01 0.01 0.01 0.01 0.02 0.02 0.03 0.03 0.02 0.02 0.03 0.03 0.04 0.04 0.03 0.03 0.03 0.03 0.03 0.03 0.02 0.02 0.01 0.01 0.01 0.01 0.01
0.03 0.03 0.03 0.03 0.04 0.04 0.07 0.08 0.09 0.09 0.07 0.05 0.04 0.03 0.03 0.01 0.01 0.01 0.01 0.01 0.01 0.02 0.02 0.03 0.03 0.02 0.03 0.03 0.03 0.04 0.04 0.04 0.03 0.02 0.03 0.03 0.03 0.02 0.02 0.01 0.02 0.02 0.01
0.03 0.03 0.03 0.03 0.04 0.05 0.07 0.09 0.09 0.08 0.07 0.05 0.04 0.03 0.02 0.01 0.01 0.01 0.01 0.01 0.01 0.01 0.01 0.02 0.02 0.03 0.03 0.03 0.03 0.04 0.04 0.04 0.04 0.03 0.02 0.03 0.03 0.03 0.02 0.02 0.01 0.01 0.02
0.03 0.03 0.03 0.02 0.03 0.04 0.07 0.08 0.07 0.06 0.04 0.03 0.04 0.04 0.04 0.02 0.01 0.01 0.01 0.01 0.02 0.01 0.02 0.01 0.01 0.02 0.03 0.03 0.03 0.04 0.04 0.05 0.04 0.03 0.03 0.03 0.03 0.03 0.03 0.02 0.01 0.01 0.01
0.02 0.02 0.03 0.03 0.04 0.04 0.06 0.08 0.07 0.06 0.04 0.04 0.04 0.06 0.06 0.03 0.02 0.01 0.01 0.02 0.02 0.02 0.02 0.02 0.01 0.01 0.02 0.03 0.03 0.04 0.04 0.04 0.03 0.03 0.03 0.03 0.03 0.03 0.03 0.02 0.02 0.01 0.01
0.01 0.01 0.03 0.04 0.03 0.05 0.06 0.07 0.08 0.06 0.05 0.05 0.05 0.05 0.06 0.04 0.02 0.02 0.01 0.02 0.02 0.02 0.03 0.02 0.02 0.02 0.02 0.02 0.03 0.03 0.03 0.03 0.03 0.02 0.02 0.02 0.02 0.02 0.02 0.02 0.02 0.02 0.02
0.01 0.01 0.01 0.02 0.03 0.04 0.06 0.06 0.06 0.07 0.06 0.05 0.05 0.05 0.05 0.05 0.03 0.02 0.02 0.02 0.02 0.02 0.02 0.02 0.02 0.02 0.02 0.02 0.02 0.02 0.02 0.02 0.02 0.02 0.02 0.02 0.02 0.01 0.02 0.02 0.02 0.02 0.02
0.01 0.01 0.01 0.01 0.02 0.03 0.05 0.06 0.04 0.05 0.07 0.07 0.06 0.05 0.05 0.05 0.05 0.04 0.03 0.02 0.02 0.03 0.03 0.02 0.02 0.02 0.02 0.02 0.02 0.02 0.02 0.02 0.02 0.02 0.02 0.02 0.01 0.01 0.01 0.02 0.02 0.02 0.02
MSLP
1016.05 1016.23 1016.46 1016.73 1017.03 1017.31 1017.55 1017.74 1017.88 1017.96 1018.01 1018.05 1018.11 1018.20 1018.32 1018.46 1018.60 1018.72 1018.78 1018.78 1018.72 1018.62 1018.48 1018.34 1018.22 1018.12 1018.06 1018.02 1017.99 1017.95 1017.89 1017.80 1017.68 1017.54 1017.38 1017.22 1017.06 1016.90 1016.74 1016.57 1016.38 1016.18 1015.95
1015.76 1015.99 1016.29 1016.64 1017.00 1017.35 1017.64 1017.86 1018.01 1018.09 1018.14 1018.18 1018.24 1018.33 1018.45 1018.60 1018.75 1018.86 1018.93 1018.95 1018.90 1018.82 1018.73 1018.63 1018.57 1018.53 1018.52 1018.52 1018.51 1018.47 1018.40 1018.28 1018.13 1017.96 1017.79 1017.63 1017.48 1017.35 1017.22 1017.08 1016.92 1016.72 1016.50
1015.52 1015.79 1016.14 1016.53 1016.94 1017.33 1017.66 1017.91 1018.08 1018.18 1018.25 1018.30 1018.38 1018.48 1018.62 1018.77 1018.91 1019.03 1019.09 1019.10 1019.07 1019.01 1018.95 1018.91 1018.90 1018.92 1018.96 1019.00 1019.01 1018.97 1018.88 1018.74 1018.56 1018.37 1018.19 1018.03 1017.90 1017.79 1017.69 1017.58 1017.44 1017.26 1017.04
1015.39 1015.68 1016.04 1016.46 1016.88 1017.28 1017.62 1017.89 1018.09 1018.22 1018.32 1018.41 1018.52 1018.65 1018.81 1018.97 1019.12 1019.23 1019.28 1019.28 1019.25 1019.21 1019.17 1019.17 1019.21 1019.28 1019.37 1019.44 1019.47 1019.43 1019.33 1019.17 1018.97 1018.76 1018.57 1018.41 1018.30 1018.21 1018.14 1018.05 1017.94 1017.78 1017.58
1015.38 1015.67 1016.03 1016.43 1016.84 1017.22 1017.56 1017.83 1018.04 1018.21 1018.35 1018.50 1018.66 1018.84 1019.03 1019.21 1019.37 1019.47 1019.52 1019.52 1019.48 1019.45 1019.43 1019.46 1019.53 1019.64 1019.76 1019.85 1019.89 1019.86 1019.75 1019.57 1019.36 1019.14 1018.94 1018.78 1018.67 1018.60 1018.54 1018.48 1018.40 1018.26 1018.09
1015.50 1015.78 1016.11 1016.47 1016.83 1017.18 1017.48 1017.75 1017.97 1018.16 1018.36 1018.56 1018.78 1019.01 1019.25 1019.47 1019.64 1019.76 1019.81 1019.81 1019.78 1019.75 1019.75 1019.79 1019.89 1020.01 1020.14 1020.24 1020.29 1020.26 1020.14 1019.96 1019.74 1019.51 1019.30 1019.14 1019.02 1018.95 1018.90 1018.85 1018.78 1018.68 1018.54
1015.71 1015.97 1016.26 1016.56 1016.86 1017.15 1017.41 1017.65 1017.88 1018.10 1018.34 1018.60 1018.88 1019.17 1019.47 1019.73 1019.94 1020.08 1020.15 1020.16 1020.14 1020.13 1020.13 1020.18 1020.28 1020.40 1020.53 1020.63 1020.67 1020.64 1020.52 1020.34 1020.12 1019.88 1019.67 1019.49 1019.36 1019.26 1019.20 1019.15 1019.09 1019.01 1018.90
1015.95 1016.18 1016.42 1016.67 1016.90 1017.13 1017.36 1017.58 1017.80 1018.04 1018.32 1018.63 1018.96 1019.32 1019.66 1019.97 1020.22 1020.40 1020.50 1020.54 1020.55 1020.54 1020.56 1020.61 1020.69 1020.80 1020.92 1021.00 1021.04 1021.00 1020.90 1020.72 1020.50 1020.27 1020.04 1019.84 1019.67 1019.55 1019.45 1019.38 1019.31 1019.24 1019.17
1016.14 1016.35 1016.55 1016.75 1016.94 1017.12 1017.31 1017.52 1017.75 1018.01 1018.32 1018.67 1019.05 1019.44 1019.83 1020.18 1020.47 1020.69 1020.83 1020.91 1020.95 1020.97 1020.99 1021.03 1021.10 1021.19 1021.28 1021.36 1021.39 1021.36 1021.26 1021.10 1020.90 1020.67 1020.43 1020.20 1019.99 1019.81 1019.67 1019.56 1019.47 1019.40 1019.35
1016.23 1016.42 1016.60 1016.77 1016.93 1017.10 1017.29 1017.50 1017.74 1018.03 1018.36 1018.74 1019.15 1019.57 1019.98 1020.35 1020.67 1020.93 1021.11 1021.23 1021.30 1021.34 1021.37 1021.41 1021.47 1021.54 1021.61 1021.67 1021.71 1021.69 1021.62 1021.49 1021.32 1021.09 1020.84 1020.59 1020.33 1020.10 1019.89 1019.72 1019.60 1019.52 1019.47
1016.20 1016.39 1016.56 1016.72 1016.88 1017.06 1017.27 1017.51 1017.79 1018.10 1018.46 1018.86 1019.27 1019.70 1020.11 1020.49 1020.82 1021.10 1021.32 1021.47 1021.57 1021.64 1021.68 1021.72 1021.77 1021.83 1021.89 1021.95 1022.00 1022.01 1021.99 1021.90 1021.76 1021.56 1021.31 1021.03 1020.73 1020.43 1020.16 1019.93 1019.75 1019.64 1019.59
1016.06 1016.25 1016.43 1016.61 1016.80 1017.02 1017.27 1017.56 1017.88 1018.24 1018.62 1019.02 1019.43 1019.84 1020.23 1020.60 1020.93 1021.21 1021.44 1021.62 1021.75 1021.84 1021.91 1021.95 1022.00 1022.06 1022.13 1022.21 1022.28 1022.34 1022.37 1022.35 1022.26 1022.09 1021.86 1021.56 1021.22 1020.86 1020.52 1020.22 1019.99 1019.83 1019.75
1015.86 1016.05 1016.25 1016.46 1016.70 1016.97 1017.29 1017.64 1018.02 1018.42 1018.83 1019.23 1019.63 1020.01 1020.37 1020.70 1021.01 1021.28 1021.52 1021.71 1021.86 1021.98 1022.06 1022.12 1022.19 1022.26 1022.35 1022.46 1022.58 1022.71 1022.81 1022.85 1022.83 1022.71 1022.50 1022.19 1021.82 1021.42 1021.01 1020.65 1020.35 1020.14 1020.02
1015.66 1015.87 1016.08 1016.32 1016.61 1016.94 1017.32 1017.74 1018.18 1018.63 1019.07 1019.48 1019.86 1020.20 1020.52 1020.82 1021.09 1021.34 1021.57 1021.77 1021.94 1022.07 1022.18 1022.27 1022.36 1022.46 1022.59 1022.75 1022.94 1023.14 1023.32 1023.45 1023.50 1023.44 1023.26 1022.96 1022.57 1022.12 1021.67 1021.24 1020.88 1020.61 1020.44
1015.53 1015.74 1015.96 1016.23 1016.56 1016.94 1017.38 1017.86 1018.36 1018.86 1019.32 1019.74 1020.11 1020.43 1020.71 1020.96 1021.20 1021.43 1021.65 1021.85 1022.03 1022.18 1022.31 1022.43 1022.56 1022.70 1022.88 1023.10 1023.37 1023.65 1023.92 1024.14 1024.27 1024.28 1024.14 1023.86 1023.47 1023.00 1022.50 1022.02 1021.60 1021.27 1021.04
1015.50 1015.71 1015.94 1016.22 1016.56 1016.98 1017.46 1017.99 1018.53 1019.07 1019.56 1020.00 1020.36 1020.67 1020.93 1021.15 1021.36 1021.57 1021.78 1021.98 1022.16 1022.34 1022.50 1022.65 1022.82 1023.01 1023.25 1023.54 1023.88 1024.25 1024.61 1024.92 1025.14 1025.21 1025.13 1024.89 1024.51 1024.04 1023.51 1022.99 1022.52 1022.13 1021.84
1015.58 1015.78 1016.00 1016.28 1016.62 1017.05 1017.56 1018.12 1018.70 1019.27 1019.79 1020.25 1020.62 1020.93 1021.18 1021.39 1021.59 1021.78 1021.98 1022.18 1022.38 1022.57 1022.75 1022.94 1023.14 1023.38 1023.68 1024.03 1024.45 1024.90 1025.35 1025.75 1026.05 1026.20 1026.19 1026.00 1025.65 1025.19 1024.66 1024.12 1023.61 1023.17 1022.81
1015.72 1015.92 1016.13 1016.39 1016.73 1017.16 1017.67 1018.25 1018.85 1019.45 1020.00 1020.48 1020.88 1021.21 1021.47 1021.68 1021.88 1022.07 1022.27 1022.47 1022.67 1022.87 1023.07 1023.28 1023.51 1023.79 1024.13 1024.54 1025.02 1025.54 1026.07 1026.55 1026.94 1027.18 1027.24 1027.12 1026.83 1026.41 1025.90 1025.35 1024.83 1024.35 1023.94
1015.85 1016.06 1016.28 1016.54 1016.87 1017.29 1017.80 1018.38 1019.00 1019.62 1020.20 1020.72 1021.15 1021.50 1021.79 1022.02 1022.23 1022.43 1022.62 1022.82 1023.03 1023.23 1023.44 1023.65 1023.91 1024.20 1024.57 1025.02 1025.54 1026.11 1026.70 1027.25 1027.72 1028.05 1028.20 1028.17 1027.96 1027.60 1027.14 1026.63 1026.10 1025.61 1025.16
1015.91 1016.16 1016.40 1016.67 1017.01 1017.42 1017.93 1018.52 1019.15 1019.80 1020.41 1020.96 1021.43 1021.82 1022.14 1022.40 1022.62 1022.83 1023.03 1023.23 1023.43 1023.63 1023.83 1024.05 1024.29 1024.59 1024.96 1025.42 1025.95 1026.55 1027.18 1027.79 1028.32 1028.74 1028.99 1029.06 1028.96 1028.70 1028.32 1027.86 1027.37 1026.89 1026.42
1015.85 1016.17 1016.46 1016.77 1017.12 1017.56 1018.08 1018.68 1019.33 1019.99 1020.63 1021.22 1021.73 1022.16 1022.51 1022.80 1023.05 1023.27 1023.48 1023.68 1023.87 1024.06 1024.24 1024.44 1024.66 1024.94 1025.28 1025.72 1026.24 1026.83 1027.47 1028.11 1028.70 1029.19 1029.54 1029.73 1029.75 1029.61 1029.35 1028.99 1028.56 1028.12 1027.67
1015.66 1016.08 1016.45 1016.81 1017.21 1017.68 1018.23 1018.85 1019.52 1020.21 1020.88 1021.50 1022.05 1022.51 1022.90 1023.22 1023.50 1023.74 1023.95 1024.15 1024.34 1024.51 1024.67 1024.84 1025.03 1025.26 1025.56 1025.94 1026.41 1026.97 1027.59 1028.23 1028.85 1029.40 1029.84 1030.14 1030.30 1030.30 1030.17 1029.93 1029.61 1029.24 1028.83
1015.39 1015.91 1016.38 1016.82 1017.28 1017.79 1018.38 1019.03 1019.73 1020.44 1021.14 1021.79 1022.37 1022.87 1023.30 1023.65 1023.95 1024.21 1024.44 1024.65 1024.83 1024.99 1025.14 1025.28 1025.42 1025.60 1025.83 1026.13 1026.53 1027.01 1027.58 1028.18 1028.80 1029.39 1029.90 1030.31 1030.59 1030.75 1030.76 1030.67 1030.47 1030.20 1029.87
1015.11 1015.74 1016.29 1016.81 1017.34 1017.91 1018.53 1019.22 1019.95 1020.69 1021.41 1022.09 1022.70 1023.23 1023.68 1024.07 1024.39 1024.68 1024.94 1025.16 1025.36 1025.53 1025.67 1025.78 1025.89 1026.01 1026.16 1026.38 1026.68 1027.06 1027.54 1028.07 1028.66 1029.24 1029.80 1030.28 1030.68 1030.97 1031.14 1031.19 1031.14 1030.99 1030.76
1014.92 1015.63 1016.25 1016.83 1017.42 1018.03 1018.70 1019.42 1020.17 1020.94 1021.68 1022.38 1023.02 1023.57 1024.05 1024.47 1024.83 1025.16 1025.45 1025.70 1025.93 1026.12 1026.27 1026.38 1026.46 1026.53 1026.62 1026.74 1026.94 1027.21 1027.57 1028.02 1028.52 1029.08 1029.64 1030.17 1030.65 1031.04 1031.35 1031.54 1031.63 1031.61 1031.49
1014.91 1015.65 1016.31 1016.93 1017.54 1018.19 1018.88 1019.63 1020.40 1021.19 1021.96 1022.68 1023.33 1023.91 1024.42 1024.86 1025.26 1025.63 1025.96 1026.27 1026.54 1026.77 1026.95 1027.07 1027.15 1027.20 1027.23 1027.28 1027.37 1027.53 1027.78 1028.11 1028.52 1029.01 1029.53 1030.07 1030.59 1031.06 1031.46 1031.78 1031.99 1032.09 1032.08
Thickness
5679 5678 5676 5676 5677 5677 5677 5677 5677 5677 5677 5677 5677 5677 5677 5677 5677 5677 5677 5677 5677 5677 5676 5676 5676 5675 5675 5674 5674 5673 5673 5673 5673 5672 5672 5672 5672 5673 5673 5673 5674 5674 5674
5676 5675 5672 5673 5673 5674 5673 5673 5673 5673 5673 5673 5673 5673 5673 5673 5674 5674 5674 5673 5673 5673 5672 5672 5672 5671 5671 5670 5669 5669 5668 5668 5667 5667 5668 5668 5667 5668 5668 5669 5669 5669 5669
5672 5670 5669 5669 5669 5670 5669 5669 5669 5669 5669 5668 5668 5669 5669 5669 5669 5669 5669 5669 5669 5669 5668 5668 5667 5667 5666 5665 5664 5664 5663 5663 5662 5663 5664 5664 5663 5663 5663 5664 5664 5664 5664
5667 5666 5665 5665 5665 5665 5665 5664 5664 5664 5664 5664 5664 5664 5664 5665 5665 5665 5665 5665 5665 5664 5663 5663 5662 5662 5661 5661 5660 5659 5658 5658 5657 5658 5660 5660 5659 5658 5658 5659 5659 5659 5659
5662 5661 5661 5660 5660 5660 5660 5660 5659 5659 5659 5659 5659 5659 5659 5659 5660 5660 5660 5660 5660 5660 5659 5658 5657 5657 5656 5655 5655 5654 5653 5653 5653 5654 5655 5655 5654 5653 5653 5654 5654 5654 5654
5656 5656 5656 5655 5655 5655 5655 5654 5654 5654 5654 5654 5654 5654 5654 5654 5655 5655 5655 5655 5655 5654 5654 5653 5652 5651 5651 5650 5649 5649 5648 5648 5649 5650 5650 5650 5649 5648 5648 5648 5649 5649 5649
5651 5651 5650 5649 5649 5649 5649 5649 5649 5648 5648 5648 5648 5648 5648 5649 5649 5649 5649 5649 5649 5649 5648 5647 5647 5646 5645 5644 5644 5643 5643 5643 5644 5644 5644 5644 5643 5642 5643 5643 5644 5644 5644
5645 5645 5644 5643 5643 5643 5643 5643 5643 5643 5642 5642 5642 5641 5642 5642 5643 5643 5643 5643 5644 5643 5642 5642 5641 5640 5639 5639 5638 5637 5637 5637 5638 5638 5638 5638 5637 5637 5637 5638 5638 5638 5639
5638 5638 5638 5638 5637 5637 5637 5637 5637 5637 5636 5636 5635 5635 5635 5636 5637 5637 5637 5638 5637 5637 5636 5636 5635 5634 5633 5632 5631 5631 5630 5631 5632 5632 5632 5632 5631 5631 5632 5632 5632 5633 5633
5631 5631 5631 5631 5631 5631 5631 5630 5631 5631 5630 5630 5629 5628 5628 5629 5629 5630 5631 5631 5631 5631 5630 5629 5628 5627 5626 5625 5624 5624 5624 5625 5626 5626 5625 5625 5625 5625 5626 5626 5626 5627 5627
5623 5623 5624 5624 5624 5624 5624 5624 5624 5624 5624 5623 5622 5622 5622 5622 5623 5623 5624 5624 5624 5624 5623 5622 5622 5621 5620 5618 5618 5617 5618 5618 5619 5619 5618 5618 5618 5619 5620 5620 5620 5620 5621
5616 5616 5616 5616 5616 5617 5617 5617 5617 5617 5617 5617 5616 5616 5615 5616 5616 5616 5616 5617 5617 5617 5616 5616 5615 5614 5614 5613 5611 5611 5611 5611 5611 5611 5611 5611 5611 5612 5613 5613 5614 5614 5614
5607 5608 5608 5608 5608 5609 5610 5610 5611 5611 5611 5610 5610 5609 5609 5609 5609 5609 5609 5609 5609 5609 5609 5609 5608 5608 5607 5606 5606 5605 5604 5604 5604 5604 5603 5603 5604 5605 5606 5607 5607 5607 5607
5599 5599 5600 5601 5601 5602 5603 5603 5603 5603 5604 5604 5603 5603 5603 5603 5602 5602 5602 5602 5601 5601 5601 5601 5601 5600 5599 5599 5598 5597 5596 5596 5595 5595 5595 5595 5596 5597 5598 5599 5599 5600 5600
5591 5592 5592 5593 5594 5594 5595 5596 5596 5597 5597 5597 5596 5596 5596 5596 5595 5594 5593 5593 5594 5594 5594 5593 5593 5593 5592 5591 5590 5589 5588 5587 5587 5586 5586 5586 5587 5588 5590 5591 5591 5592 5592
5584 5585 5585 5585 5586 5587 5588 5589 5589 5589 5590 5590 5590 5589 5589 5589 5588 5587 5586 5585 5585 5585 5585 5585 5585 5585 5584 5583 5582 5581 5580 5579 5579 5578 5578 5578 5579 5579 5580 5582 5583 5583 5584
5578 5579 5578 5578 5578 5579 5580 5581 5582 5582 5582 5583 5582 5582 5581 5581 5580 5580 5579 5578 5577 5577 5577 5577 5576 5576 5575 5574 5573 5572 5572 5571 5571 5570 5570 5570 5570 5571 5571 5572 5573 5574 5575
5571 5571 5570 5570 5570 5572 5573 5574 5575 5575 5575 5575 5575 5574 5573 5572 5572 5571 5571 5570 5569 5568 5568 5568 5568 5568 5567 5566 5565 5564 5563 5562 5562 5562 5561 5561 5561 5562 5562 5562 5563 5564 5565
5562 5563 5563 5563 5563 5565 5565 5566 5567 5567 5567 5567 5566 5565 5564 5564 5563 5563 5562 5561 5561 5560 5559 5559 5559 5559 5558 5557 5556 5555 5554 5553 5553 5553 5552 5552 5552 5552 5552 5552 5553 5554 5554
5553 5555 5555 5555 5555 5556 5557 5558 5558 5559 5559 5559 5558 5557 5556 5555 5555 5554 5553 5552 5552 5552 5551 5550 5549 5548 5548 5547 5546 5546 5545 5544 5544 5544 5543 5542 5542 5542 5542 5542 5543 5543 5544
5544 5545 5546 5547 5548 5548 5549 5550 5551 5552 5550 5550 5549 5548 5547 5547 5546 5546 5545 5544 5543 5543 5542 5541 5540 5539 5538 5537 5538 5538 5536 5535 5535 5534 5534 5533 5533 5532 5531 5531 5532 5532 5533
5535 5536 5537 5538 5539 5540 5540 5540 5541 5541 5541 5540 5539 5538 5538 5537 5537 5536 5536 5536 5535 5533 5532 5531 5530 5530 5528 5527 5529 5530 5531 5529 5527 5525 5524 5523 5523 5521 5521 5521 5521 5521 5522
5527 5528 5528 5530 5530 5531 5531 5531 5531 5531 5531 5531 5530 5529 5528 5527 5527 5527 5527 5527 5525 5525 5524 5523 5522 5521 5520 5518 5518 5520 5522 5525 5520 5518 5515 5514 5512 5511 5511 5510 5510 5510 5511
5517 5518 5520 5520 5520 5521 5521 5522 5523 5525 5524 5522 5521 5519 5518 5517 5517 5517 5517 5517 5516 5515 5514 5513 5512 5512 5511 5510 5507 5506 5507 5509 5507 5509 5507 5504 5502 5501 5500 5500 5500 5499 5499
5506 5507 5509 5510 5510 5510 5511 5512 5513 5513 5512 5511 5510 5508 5507 5507 5507 5507 5506 5506 5505 5504 5503 5502 5501 5501 5500 5499 5498 5496 5495 5494 5494 5496 5499 5496 5493 5491 5489 5489 5488 5488 5488
5494 5495 5497 5498 5499 5500 5500 5501 5502 5501 5501 5500 5500 5499 5498 5496 5496 5495 5495 5495 5495 5494 5493 5492 5491 5490 5489 5487 5486 5485 5485 5485 5484 5484 5486 5485 5484 5483 5479 5478 5477 5477 5476